WXM80 ListenWXM80 Stop

You find our weather info also at:

UK Metoffice

WeatherCloud

Weather Underground

Northeastern Weather Network

AWEKAS

Citizen Weather Observer Program (CWOP)

HAMweather, WeatherForYou, PWS Weather


Weather Underground History page Text

Daily Summary for December 20, 2016 Units:  English    Metric   Both
« Previous Day
Next Day »
Daily Weekly Monthly Yearly Custom
  High: Low: Average:
Temperature: 31.4 °F 22.3 °F 26.8 °F
Dew Point: 21.0 °F 10.1 °F 16 °F
Humidity: 72 % 53 % 63 %
Wind Speed: 7.6 mph 0.0 mph 2 mph
Wind Gust: 29.0 mph - -
Wind:- - SE
Pressure: 30.65 in 30.11 in -
Precipitation: 0.00 in    
Historical Graphs
 
 
Tabular Data for December 20, 2016
Time Temperature Dew Point Pressure Wind Wind Speed Wind Gust Humidity Rainfall Rate (Hourly)
00:02 25.0 °F 13.4 °F 30.64 in NNE 2.8 mph 29.0 mph 61 % 0.00 in
00:07 24.9 °F 13.0 °F 30.64 in North 4.0 mph 29.0 mph 60 % 0.00 in
00:12 24.8 °F 12.9 °F 30.64 in NE 4.0 mph 29.0 mph 60 % 0.00 in
00:17 24.7 °F 12.8 °F 30.64 in NNE 4.2 mph 29.0 mph 60 % 0.00 in
00:22 24.6 °F 12.3 °F 30.65 in North 7.6 mph 29.0 mph 59 % 0.00 in
00:27 24.6 °F 12.3 °F 30.65 in NE 5.6 mph 29.0 mph 59 % 0.00 in
00:32 24.5 °F 11.4 °F 30.64 in NNE 5.1 mph 29.0 mph 57 % 0.00 in
00:37 24.4 °F 11.3 °F 30.64 in NNE 5.6 mph 29.0 mph 57 % 0.00 in
00:42 24.4 °F 11.3 °F 30.65 in NNE 4.4 mph 29.0 mph 57 % 0.00 in
00:48 24.4 °F 11.7 °F 30.65 in NNE 7.3 mph 29.0 mph 58 % 0.00 in
00:53 24.3 °F 11.6 °F 30.65 in NNE 4.1 mph 29.0 mph 58 % 0.00 in
00:58 24.3 °F 11.6 °F 30.65 in NNE 3.6 mph 29.0 mph 58 % 0.00 in
01:03 24.3 °F 12.0 °F 30.64 in NE 6.5 mph 29.0 mph 59 % 0.00 in
01:08 24.2 °F 11.9 °F 30.64 in NNE 6.1 mph 29.0 mph 59 % 0.00 in
01:13 24.2 °F 11.9 °F 30.64 in NNE 3.3 mph 29.0 mph 59 % 0.00 in
01:18 24.1 °F 11.4 °F 30.64 in NNE 6.6 mph 29.0 mph 58 % 0.00 in
01:23 24.0 °F 11.7 °F 30.64 in NNE 5.7 mph 29.0 mph 59 % 0.00 in
01:28 24.0 °F 11.3 °F 30.65 in NNE 3.9 mph 29.0 mph 58 % 0.00 in
01:33 24.0 °F 11.0 °F 30.65 in NNE 4.7 mph 29.0 mph 57 % 0.00 in
01:38 24.0 °F 11.0 °F 30.65 in NE 2.2 mph 29.0 mph 57 % 0.00 in
01:43 23.9 °F 11.3 °F 30.65 in North 2.9 mph 29.0 mph 58 % 0.00 in
01:48 23.9 °F 11.3 °F 30.64 in NNE 4.9 mph 29.0 mph 58 % 0.00 in
01:53 23.9 °F 10.1 °F 30.64 in NNE 3.2 mph 29.0 mph 55 % 0.00 in
01:58 23.9 °F 10.9 °F 30.64 in NNE 4.4 mph 29.0 mph 57 % 0.00 in
02:03 23.9 °F 10.5 °F 30.63 in NE 2.8 mph 29.0 mph 56 % 0.00 in
02:08 23.8 °F 10.8 °F 30.63 in NNE 4.6 mph 29.0 mph 57 % 0.00 in
02:13 23.8 °F 10.4 °F 30.63 in ENE 2.9 mph 29.0 mph 56 % 0.00 in
02:18 23.8 °F 11.2 °F 30.62 in NE 2.4 mph 29.0 mph 58 % 0.00 in
02:24 23.9 °F 11.3 °F 30.62 in ENE 1.2 mph 29.0 mph 58 % 0.00 in
02:29 23.8 °F 11.2 °F 30.62 in NNE 2.6 mph 29.0 mph 58 % 0.00 in
02:34 23.8 °F 11.5 °F 30.62 in ENE 3.1 mph 29.0 mph 59 % 0.00 in
02:39 23.8 °F 11.5 °F 30.62 in NE 0.6 mph 29.0 mph 59 % 0.00 in
02:44 23.8 °F 11.5 °F 30.62 in NNE 2.1 mph 29.0 mph 59 % 0.00 in
02:49 23.8 °F 11.2 °F 30.62 in NNE 2.2 mph 29.0 mph 58 % 0.00 in
02:54 23.7 °F 11.8 °F 30.61 in NNE 4.2 mph 29.0 mph 60 % 0.00 in
02:59 23.7 °F 11.8 °F 30.61 in East 2.3 mph 29.0 mph 60 % 0.00 in
03:04 23.8 °F 12.7 °F 30.61 in ENE 4.1 mph 29.0 mph 62 % 0.00 in
03:09 23.9 °F 12.8 °F 30.60 in NNE 1.9 mph 29.0 mph 62 % 0.00 in
03:14 24.0 °F 12.9 °F 30.60 in NE 4.0 mph 29.0 mph 62 % 0.00 in
03:19 24.0 °F 13.2 °F 30.60 in NE 3.0 mph 7.0 mph 63 % 0.00 in
03:24 24.0 °F 13.6 °F 30.60 in NE 3.0 mph 10.0 mph 64 % 0.00 in
03:29 24.0 °F 13.6 °F 30.60 in NE 3.0 mph 5.0 mph 64 % 0.00 in
03:34 23.9 °F 13.5 °F 30.59 in NE 1.0 mph 4.0 mph 64 % 0.00 in
03:39 23.9 °F 13.5 °F 30.59 in NE 2.0 mph 7.0 mph 64 % 0.00 in
03:44 23.8 °F 13.7 °F 30.60 in NNE 3.0 mph 7.0 mph 65 % 0.00 in
03:49 23.8 °F 13.7 °F 30.59 in NNE 5.0 mph 8.0 mph 65 % 0.00 in
03:54 23.7 °F 14.0 °F 30.59 in NNE 2.0 mph 6.0 mph 66 % 0.00 in
03:59 23.6 °F 13.9 °F 30.59 in North 2.8 mph 29.0 mph 66 % 0.00 in
04:05 23.6 °F 13.5 °F 30.59 in NNE 1.2 mph 29.0 mph 65 % 0.00 in
04:10 23.5 °F 13.8 °F 30.59 in NNE 3.8 mph 29.0 mph 66 % 0.00 in
04:15 23.5 °F 14.1 °F 30.59 in NNE 2.7 mph 29.0 mph 67 % 0.00 in
04:20 23.4 °F 14.4 °F 30.59 in NNE 2.3 mph 29.0 mph 68 % 0.00 in
04:25 23.4 °F 14.4 °F 30.58 in NNE 2.0 mph 29.0 mph 68 % 0.00 in
04:30 23.3 °F 14.3 °F 30.59 in NNE 4.0 mph 29.0 mph 68 % 0.00 in
04:35 23.2 °F 14.5 °F 30.59 in NNE 1.4 mph 29.0 mph 69 % 0.00 in
04:40 23.1 °F 14.8 °F 30.59 in NNE 2.8 mph 29.0 mph 70 % 0.00 in
04:45 23.1 °F 15.1 °F 30.59 in NNE 2.2 mph 29.0 mph 71 % 0.00 in
04:50 23.1 °F 15.1 °F 30.59 in NNE 3.7 mph 29.0 mph 71 % 0.00 in
04:55 23.1 °F 15.4 °F 30.59 in NNE 2.7 mph 29.0 mph 72 % 0.00 in
05:00 23.1 °F 15.4 °F 30.59 in NNE 2.5 mph 29.0 mph 72 % 0.00 in
05:05 23.0 °F 15.3 °F 30.59 in North 3.3 mph 29.0 mph 72 % 0.00 in
05:10 23.0 °F 15.3 °F 30.59 in NNE 1.4 mph 29.0 mph 72 % 0.00 in
05:16 22.9 °F 14.9 °F 30.59 in North 5.8 mph 29.0 mph 71 % 0.00 in
05:21 22.9 °F 14.9 °F 30.58 in NNE 3.1 mph 29.0 mph 71 % 0.00 in
05:26 22.9 °F 14.6 °F 30.58 in NNE 1.5 mph 29.0 mph 70 % 0.00 in
05:31 22.8 °F 14.8 °F 30.58 in NE 0.9 mph 29.0 mph 71 % 0.00 in
05:36 22.7 °F 14.7 °F 30.58 in NNE 3.6 mph 29.0 mph 71 % 0.00 in
05:41 22.6 °F 14.3 °F 30.58 in NNE 2.0 mph 29.0 mph 70 % 0.00 in
05:46 22.5 °F 14.2 °F 30.58 in NNE 1.4 mph 29.0 mph 70 % 0.00 in
05:51 22.5 °F 14.2 °F 30.58 in NNE 4.1 mph 29.0 mph 70 % 0.00 in
05:56 22.5 °F 14.2 °F 30.58 in NNE 1.8 mph 29.0 mph 70 % 0.00 in
06:01 22.5 °F 14.2 °F 30.58 in North 2.8 mph 29.0 mph 70 % 0.00 in
06:06 22.6 °F 14.0 °F 30.59 in North 1.1 mph 29.0 mph 69 % 0.00 in
06:12 22.6 °F 14.0 °F 30.59 in NNE 2.8 mph 29.0 mph 69 % 0.00 in
06:17 22.6 °F 14.0 °F 30.58 in NNE 1.6 mph 29.0 mph 69 % 0.00 in
06:22 22.6 °F 14.0 °F 30.58 in North 3.3 mph 29.0 mph 69 % 0.00 in
06:27 22.6 °F 14.0 °F 30.58 in NE 1.6 mph 29.0 mph 69 % 0.00 in
06:32 22.6 °F 14.3 °F 30.58 in NNE 3.1 mph 29.0 mph 70 % 0.00 in
06:37 22.6 °F 14.3 °F 30.58 in NNE 3.8 mph 29.0 mph 70 % 0.00 in
06:42 22.6 °F 14.0 °F 30.57 in NNE 1.2 mph 29.0 mph 69 % 0.00 in
06:47 22.6 °F 14.0 °F 30.57 in NNE 2.2 mph 29.0 mph 69 % 0.00 in
06:52 22.5 °F 14.2 °F 30.57 in North 1.7 mph 29.0 mph 70 % 0.00 in
06:57 22.5 °F 14.2 °F 30.57 in NNE 2.5 mph 29.0 mph 70 % 0.00 in
07:02 22.5 °F 14.2 °F 30.57 in NNE 1.2 mph 29.0 mph 70 % 0.00 in
07:07 22.4 °F 14.1 °F 30.57 in NNE 1.0 mph 29.0 mph 70 % 0.00 in
07:12 22.4 °F 14.4 °F 30.57 in NNE 1.5 mph 29.0 mph 71 % 0.00 in
07:17 22.3 °F 14.3 °F 30.57 in North 4.2 mph 29.0 mph 71 % 0.00 in
07:22 22.3 °F 14.6 °F 30.57 in NNE 2.6 mph 29.0 mph 72 % 0.00 in
07:27 22.3 °F 14.6 °F 30.56 in NE 1.8 mph 29.0 mph 72 % 0.00 in
07:32 22.3 °F 14.6 °F 30.56 in NNE 1.0 mph 29.0 mph 72 % 0.00 in
07:37 22.3 °F 14.6 °F 30.57 in NNE 3.2 mph 29.0 mph 72 % 0.00 in
07:42 22.4 °F 14.7 °F 30.57 in NNE 1.7 mph 29.0 mph 72 % 0.00 in
07:47 22.5 °F 14.5 °F 30.56 in NNE 2.1 mph 29.0 mph 71 % 0.00 in
07:52 22.6 °F 14.3 °F 30.56 in NNE 2.8 mph 29.0 mph 70 % 0.00 in
07:57 22.7 °F 14.7 °F 30.56 in NNE 0.9 mph 29.0 mph 71 % 0.00 in
08:03 22.9 °F 15.2 °F 30.56 in NE 3.2 mph 29.0 mph 72 % 0.00 in
08:08 23.1 °F 15.4 °F 30.57 in North 1.1 mph 29.0 mph 72 % 0.00 in
08:13 23.2 °F 15.5 °F 30.56 in NNE 2.6 mph 29.0 mph 72 % 0.00 in
08:18 23.4 °F 15.7 °F 30.56 in NNE 3.6 mph 29.0 mph 72 % 0.00 in
08:23 23.6 °F 15.9 °F 30.56 in North 4.0 mph 29.0 mph 72 % 0.00 in
08:28 23.8 °F 16.1 °F 30.56 in North 5.1 mph 29.0 mph 72 % 0.00 in
08:33 23.9 °F 16.2 °F 30.55 in NNE 3.4 mph 29.0 mph 72 % 0.00 in
08:38 24.0 °F 16.3 °F 30.56 in NNE 4.3 mph 29.0 mph 72 % 0.00 in
08:43 24.2 °F 16.5 °F 30.56 in NNE 3.5 mph 29.0 mph 72 % 0.00 in
08:48 24.2 °F 16.5 °F 30.57 in NNE 2.3 mph 29.0 mph 72 % 0.00 in
08:53 24.4 °F 16.7 °F 30.56 in NE 1.9 mph 29.0 mph 72 % 0.00 in
08:58 24.5 °F 16.8 °F 30.56 in NNE 4.7 mph 29.0 mph 72 % 0.00 in
09:03 24.6 °F 16.9 °F 30.57 in NNE 3.9 mph 29.0 mph 72 % 0.00 in
09:08 24.7 °F 16.6 °F 30.57 in North 4.5 mph 29.0 mph 71 % 0.00 in
09:13 24.9 °F 17.1 °F 30.57 in NNW 3.3 mph 29.0 mph 72 % 0.00 in
09:19 25.0 °F 16.9 °F 30.57 in North 2.6 mph 29.0 mph 71 % 0.00 in
09:24 25.1 °F 16.7 °F 30.57 in NNE 1.9 mph 29.0 mph 70 % 0.00 in
09:29 25.3 °F 16.2 °F 30.57 in NE 2.5 mph 29.0 mph 68 % 0.00 in
09:34 25.4 °F 16.0 °F 30.56 in North 3.9 mph 29.0 mph 67 % 0.00 in
09:39 25.6 °F 16.2 °F 30.56 in ENE 3.2 mph 29.0 mph 67 % 0.00 in
09:44 25.8 °F 16.3 °F 30.56 in NE 1.8 mph 29.0 mph 67 % 0.00 in
09:49 26.1 °F 16.3 °F 30.55 in NE 1.9 mph 29.0 mph 66 % 0.00 in
09:54 26.3 °F 16.5 °F 30.55 in ENE 1.8 mph 29.0 mph 66 % 0.00 in
09:59 26.5 °F 16.3 °F 30.55 in ENE 2.3 mph 29.0 mph 65 % 0.00 in
10:04 26.7 °F 16.1 °F 30.55 in NE 3.5 mph 29.0 mph 64 % 0.00 in
10:09 26.9 °F 16.3 °F 30.55 in East 2.9 mph 29.0 mph 64 % 0.00 in
10:14 27.0 °F 16.1 °F 30.54 in North 3.4 mph 29.0 mph 63 % 0.00 in
10:19 27.2 °F 16.6 °F 30.54 in NNE 3.5 mph 29.0 mph 64 % 0.00 in
10:24 27.4 °F 16.8 °F 30.54 in NNE 2.0 mph 5.0 mph 64 % 0.00 in
10:29 27.5 °F 16.6 °F 30.54 in NNE 2.0 mph 5.0 mph 63 % 0.00 in
10:34 27.7 °F 16.8 °F 30.54 in NNE 2.0 mph 7.0 mph 63 % 0.00 in
10:39 27.9 °F 16.9 °F 30.53 in Calm   5.0 mph 63 % 0.00 in
10:44 28.1 °F 17.1 °F 30.53 in NNE 2.0 mph 6.0 mph 63 % 0.00 in
10:49 28.2 °F 16.5 °F 30.53 in NE 2.0 mph 4.0 mph 61 % 0.00 in
10:54 28.3 °F 16.9 °F 30.52 in ENE 1.0 mph 4.0 mph 62 % 0.00 in
11:00 28.4 °F 17.0 °F 30.52 in North 2.6 mph 29.0 mph 62 % 0.00 in
11:05 28.3 °F 16.6 °F 30.52 in NNE 2.4 mph 29.0 mph 61 % 0.00 in
11:10 28.2 °F 16.8 °F 30.51 in NNE 0.6 mph 29.0 mph 62 % 0.00 in
11:15 28.2 °F 16.5 °F 30.51 in NNE 0.7 mph 29.0 mph 61 % 0.00 in
11:20 28.2 °F 16.5 °F 30.51 in North 3.6 mph 29.0 mph 61 % 0.00 in
11:25 28.2 °F 16.1 °F 30.50 in NNW 2.2 mph 29.0 mph 60 % 0.00 in
11:30 28.1 °F 15.6 °F 30.50 in NNW 1.0 mph 29.0 mph 59 % 0.00 in
11:35 28.0 °F 15.1 °F 30.49 in NNW 2.2 mph 29.0 mph 58 % 0.00 in
11:40 28.0 °F 14.7 °F 30.49 in NNW 2.8 mph 29.0 mph 57 % 0.00 in
11:45 27.8 °F 14.9 °F 30.48 in NNW 0.2 mph 29.0 mph 58 % 0.00 in
11:50 27.7 °F 14.8 °F 30.48 in NNW 1.7 mph 29.0 mph 58 % 0.00 in
11:55 27.7 °F 14.4 °F 30.47 in WNW 1.8 mph 29.0 mph 57 % 0.00 in
12:00 27.7 °F 15.2 °F 30.47 in NNE 2.4 mph 29.0 mph 59 % 0.00 in
12:05 27.8 °F 15.7 °F 30.46 in North 2.9 mph 29.0 mph 60 % 0.00 in
12:11 27.9 °F 15.0 °F 30.46 in North 2.4 mph 29.0 mph 58 % 0.00 in
12:16 28.1 °F 14.8 °F 30.45 in NNW 2.9 mph 29.0 mph 57 % 0.00 in
12:21 28.4 °F 15.5 °F 30.45 in North 0.6 mph 29.0 mph 58 % 0.00 in
12:26 28.8 °F 15.5 °F 30.45 in NW 0.4 mph 29.0 mph 57 % 0.00 in
12:31 29.3 °F 15.5 °F 30.44 in North 3.3 mph 29.0 mph 56 % 0.00 in
12:36 29.9 °F 16.5 °F 30.44 in NNW 3.2 mph 29.0 mph 57 % 0.00 in
12:41 30.2 °F 16.4 °F 30.43 in NNW 4.1 mph 29.0 mph 56 % 0.00 in
12:46 30.3 °F 16.0 °F 30.43 in North 3.2 mph 29.0 mph 55 % 0.00 in
12:51 30.5 °F 16.2 °F 30.42 in NNW 2.7 mph 29.0 mph 55 % 0.00 in
12:56 30.5 °F 16.2 °F 30.42 in North 2.3 mph 29.0 mph 55 % 0.00 in
13:01 30.6 °F 16.3 °F 30.42 in NNE 3.4 mph 29.0 mph 55 % 0.00 in
13:06 30.7 °F 17.3 °F 30.42 in NNE 3.5 mph 29.0 mph 57 % 0.00 in
13:11 30.7 °F 16.8 °F 30.42 in North 4.1 mph 29.0 mph 56 % 0.00 in
13:17 30.7 °F 17.3 °F 30.41 in North 2.3 mph 29.0 mph 57 % 0.00 in
13:22 30.9 °F 16.6 °F 30.41 in NNW 2.5 mph 29.0 mph 55 % 0.00 in
13:27 31.1 °F 17.2 °F 30.41 in NNE 4.0 mph 29.0 mph 56 % 0.00 in
13:32 31.1 °F 16.4 °F 30.41 in North 3.3 mph 29.0 mph 54 % 0.00 in
13:37 31.2 °F 16.9 °F 30.41 in North 2.0 mph 29.0 mph 55 % 0.00 in
13:42 31.3 °F 16.6 °F 30.40 in NW 2.0 mph 29.0 mph 54 % 0.00 in
13:47 31.3 °F 16.1 °F 30.39 in NNW 0.2 mph 29.0 mph 53 % 0.00 in
13:52 31.4 °F 16.7 °F 30.40 in North 2.5 mph 29.0 mph 54 % 0.00 in
13:57 31.4 °F 17.1 °F 30.39 in NNE 2.9 mph 29.0 mph 55 % 0.00 in
14:02 31.4 °F 17.1 °F 30.38 in North 0.3 mph 29.0 mph 55 % 0.00 in
14:07 31.4 °F 17.1 °F 30.38 in NE 1.4 mph 29.0 mph 55 % 0.00 in
14:12 31.4 °F 17.5 °F 30.38 in NNE 0.6 mph 29.0 mph 56 % 0.00 in
14:17 31.3 °F 17.4 °F 30.38 in NNE 0.4 mph 29.0 mph 56 % 0.00 in
14:22 31.2 °F 17.7 °F 30.38 in North 2.5 mph 29.0 mph 57 % 0.00 in
14:28 31.0 °F 17.5 °F 30.38 in NW 2.5 mph 29.0 mph 57 % 0.00 in
14:33 30.9 °F 16.6 °F 30.38 in WNW 4.2 mph 29.0 mph 55 % 0.00 in
14:38 30.7 °F 16.4 °F 30.37 in WNW 1.6 mph 29.0 mph 55 % 0.00 in
14:43 30.7 °F 16.4 °F 30.37 in WNW 2.7 mph 29.0 mph 55 % 0.00 in
14:48 30.5 °F 16.2 °F 30.36 in WNW 1.9 mph 29.0 mph 55 % 0.00 in
14:53 30.4 °F 16.1 °F 30.36 in North 1.2 mph 29.0 mph 55 % 0.00 in
14:58 30.3 °F 16.0 °F 30.36 in NW 1.9 mph 29.0 mph 55 % 0.00 in
15:03 30.3 °F 16.0 °F 30.35 in NW 0.9 mph 29.0 mph 55 % 0.00 in
15:08 30.2 °F 16.0 °F 30.34 in Calm   29.0 mph 55 % 0.00 in
15:13 30.2 °F 16.4 °F 30.35 in Calm   29.0 mph 56 % 0.00 in
15:18 30.1 °F 16.7 °F 30.35 in Calm   29.0 mph 57 % 0.00 in
15:23 30.1 °F 16.7 °F 30.35 in NW 0.3 mph 29.0 mph 57 % 0.00 in
15:28 30.1 °F 16.7 °F 30.34 in NW 0.4 mph 29.0 mph 57 % 0.00 in
15:33 30.1 °F 16.7 °F 30.34 in NW 1.0 mph 29.0 mph 57 % 0.00 in
15:38 30.0 °F 16.6 °F 30.34 in NW 0.4 mph 29.0 mph 57 % 0.00 in
15:43 30.0 °F 17.0 °F 30.33 in Calm   29.0 mph 58 % 0.00 in
15:48 29.9 °F 16.9 °F 30.33 in Calm   29.0 mph 58 % 0.00 in
15:54 29.9 °F 16.9 °F 30.33 in Calm   29.0 mph 58 % 0.00 in
15:59 29.9 °F 16.9 °F 30.33 in Calm   29.0 mph 58 % 0.00 in
16:04 29.8 °F 16.8 °F 30.33 in Calm   29.0 mph 58 % 0.00 in
16:09 29.8 °F 16.8 °F 30.33 in Calm   29.0 mph 58 % 0.00 in
16:14 29.7 °F 17.1 °F 30.32 in Calm   29.0 mph 59 % 0.00 in
16:19 29.6 °F 17.0 °F 30.32 in Calm   29.0 mph 59 % 0.00 in
16:24 29.6 °F 17.4 °F 30.32 in Calm   29.0 mph 60 % 0.00 in
16:29 29.6 °F 17.8 °F 30.32 in Calm   29.0 mph 61 % 0.00 in
16:34 29.5 °F 17.7 °F 30.31 in Calm   29.0 mph 61 % 0.00 in
16:39 29.4 °F 18.0 °F 30.31 in Calm   29.0 mph 62 % 0.00 in
16:44 29.3 °F 17.9 °F 30.30 in Calm   29.0 mph 62 % 0.00 in
16:49 29.2 °F 17.8 °F 30.31 in NW 0.2 mph 29.0 mph 62 % 0.00 in
16:54 29.1 °F 18.1 °F 30.31 in NW 0.4 mph 29.0 mph 63 % 0.00 in
16:59 29.0 °F 18.0 °F 30.30 in NW 0.1 mph 29.0 mph 63 % 0.00 in
17:04 28.9 °F 17.9 °F 30.30 in Calm   29.0 mph 63 % 0.00 in
17:09 28.8 °F 17.8 °F 30.29 in NW 0.8 mph 29.0 mph 63 % 0.00 in
17:14 28.6 °F 17.2 °F 30.28 in WNW 0.2 mph 29.0 mph 62 % 0.00 in
17:19 28.5 °F 17.5 °F 30.28 in Calm   2.0 mph 63 % 0.00 in
17:24 28.4 °F 17.4 °F 30.27 in Calm   29.0 mph 63 % 0.00 in
17:29 28.3 °F 17.3 °F 30.27 in Calm   29.0 mph 63 % 0.00 in
17:34 28.2 °F 17.2 °F 30.28 in Calm     63 % 0.00 in
17:39 28.1 °F 17.5 °F 30.28 in Calm     64 % 0.00 in
17:44 28.0 °F 17.4 °F 30.28 in Calm     64 % 0.00 in
17:49 27.9 °F 17.3 °F 30.28 in Calm     64 % 0.00 in
17:54 27.8 °F 17.2 °F 30.27 in Calm     64 % 0.00 in
17:59 27.6 °F 17.4 °F 30.28 in Calm   29.0 mph 65 % 0.00 in
18:05 27.5 °F 18.0 °F 30.27 in Calm   29.0 mph 67 % 0.00 in
18:10 27.3 °F 18.1 °F 30.26 in WNW 0.3 mph 29.0 mph 68 % 0.00 in
18:15 27.1 °F 17.9 °F 30.26 in Calm   29.0 mph 68 % 0.00 in
18:20 27.0 °F 17.8 °F 30.26 in WNW 0.5 mph 29.0 mph 68 % 0.00 in
18:25 26.9 °F 17.7 °F 30.26 in WNW 0.1 mph 29.0 mph 68 % 0.00 in
18:30 26.7 °F 17.9 °F 30.26 in WNW 0.4 mph 29.0 mph 69 % 0.00 in
18:35 26.6 °F 17.5 °F 30.26 in WNW 0.4 mph 29.0 mph 68 % 0.00 in
18:40 26.5 °F 17.0 °F 30.26 in WNW 1.2 mph 29.0 mph 67 % 0.00 in
18:45 26.5 °F 16.3 °F 30.25 in West 0.8 mph 29.0 mph 65 % 0.00 in
18:50 26.5 °F 16.0 °F 30.25 in West 1.1 mph 29.0 mph 64 % 0.00 in
18:55 26.5 °F 16.0 °F 30.25 in WSW 1.1 mph 29.0 mph 64 % 0.00 in
19:00 26.5 °F 16.0 °F 30.25 in WSW 1.1 mph 29.0 mph 64 % 0.00 in
19:05 26.6 °F 15.7 °F 30.24 in WSW 0.8 mph 29.0 mph 63 % 0.00 in
19:11 26.6 °F 15.7 °F 30.24 in WSW 0.2 mph 29.0 mph 63 % 0.00 in
19:16 26.7 °F 16.1 °F 30.24 in WSW 0.2 mph 29.0 mph 64 % 0.00 in
19:21 26.7 °F 16.5 °F 30.24 in Calm   29.0 mph 65 % 0.00 in
19:26 26.8 °F 16.2 °F 30.24 in WSW 1.4 mph 29.0 mph 64 % 0.00 in
19:31 26.8 °F 16.2 °F 30.24 in WSW 0.2 mph 29.0 mph 64 % 0.00 in
19:36 26.9 °F 16.3 °F 30.24 in WSW 1.5 mph 29.0 mph 64 % 0.00 in
19:41 27.0 °F 16.4 °F 30.24 in WSW 1.5 mph 29.0 mph 64 % 0.00 in
19:46 27.1 °F 16.5 °F 30.23 in WSW 1.0 mph 29.0 mph 64 % 0.00 in
19:51 27.2 °F 16.6 °F 30.23 in SW 1.9 mph 29.0 mph 64 % 0.00 in
19:56 27.4 °F 17.2 °F 30.22 in SW 1.3 mph 29.0 mph 65 % 0.00 in
20:01 27.4 °F 17.2 °F 30.22 in SW 0.8 mph 29.0 mph 65 % 0.00 in
20:06 27.5 °F 17.3 °F 30.21 in SW 1.2 mph 29.0 mph 65 % 0.00 in
20:11 27.6 °F 17.4 °F 30.21 in SW 1.5 mph 29.0 mph 65 % 0.00 in
20:17 27.8 °F 17.6 °F 30.21 in SW 1.7 mph 29.0 mph 65 % 0.00 in
20:22 27.9 °F 17.6 °F 30.21 in SW 1.5 mph 29.0 mph 65 % 0.00 in
20:27 28.0 °F 18.1 °F 30.21 in SW 1.4 mph 29.0 mph 66 % 0.00 in
20:32 28.2 °F 18.3 °F 30.20 in SW 0.3 mph 29.0 mph 66 % 0.00 in
20:37 28.3 °F 18.4 °F 30.20 in SW 0.8 mph 29.0 mph 66 % 0.00 in
20:42 28.4 °F 18.5 °F 30.20 in SW 2.8 mph 29.0 mph 66 % 0.00 in
20:47 28.5 °F 18.6 °F 30.20 in SW 1.3 mph 29.0 mph 66 % 0.00 in
20:53 28.6 °F 18.7 °F 30.20 in SW 0.2 mph 29.0 mph 66 % 0.00 in
20:58 28.8 °F 18.9 °F 30.20 in SW 0.8 mph 29.0 mph 66 % 0.00 in
21:03 28.9 °F 19.0 °F 30.21 in West 2.4 mph 29.0 mph 66 % 0.00 in
21:08 29.0 °F 19.1 °F 30.21 in SW 1.3 mph 29.0 mph 66 % 0.00 in
21:13 29.1 °F 19.2 °F 30.21 in WSW 3.2 mph 29.0 mph 66 % 0.00 in
21:18 29.5 °F 19.5 °F 30.21 in WSW 3.4 mph 29.0 mph 66 % 0.00 in
21:23 29.7 °F 19.7 °F 30.21 in West 2.5 mph 29.0 mph 66 % 0.00 in
21:29 29.9 °F 19.9 °F 30.21 in SW 4.3 mph 29.0 mph 66 % 0.00 in
21:34 30.1 °F 20.1 °F 30.21 in WSW 3.1 mph 29.0 mph 66 % 0.00 in
21:39 30.3 °F 20.3 °F 30.21 in WSW 4.0 mph 29.0 mph 66 % 0.00 in
21:44 30.6 °F 20.6 °F 30.21 in WSW 3.0 mph 6.0 mph 66 % 0.00 in
21:49 30.7 °F 21.0 °F 30.20 in SW 1.0 mph 5.0 mph 67 % 0.00 in
21:54 30.8 °F 20.8 °F 30.20 in SSW 1.0 mph 4.0 mph 66 % 0.00 in
22:00 30.9 °F 20.9 °F 30.19 in SSW 2.7 mph 29.0 mph 66 % 0.00 in
22:05 31.0 °F 20.6 °F 30.19 in SW 1.0 mph 29.0 mph 65 % 0.00 in
22:10 31.0 °F 20.6 °F 30.19 in SW 1.1 mph 29.0 mph 65 % 0.00 in
22:15 31.0 °F 20.2 °F 30.18 in SW 0.5 mph 29.0 mph 64 % 0.00 in
22:20 31.1 °F 20.0 °F 30.18 in SW 1.7 mph 29.0 mph 63 % 0.00 in
22:25 31.1 °F 20.0 °F 30.18 in Calm   29.0 mph 63 % 0.00 in
22:30 31.1 °F 20.0 °F 30.18 in Calm   29.0 mph 63 % 0.00 in
22:35 31.1 °F 20.0 °F 30.18 in SSW 0.3 mph 29.0 mph 63 % 0.00 in
22:40 31.1 °F 20.0 °F 30.17 in SW 0.1 mph 29.0 mph 63 % 0.00 in
22:45 31.1 °F 20.0 °F 30.17 in SW 0.2 mph 29.0 mph 63 % 0.00 in
22:50 31.1 °F 20.0 °F 30.17 in SW 1.9 mph 29.0 mph 63 % 0.00 in
22:55 31.0 °F 19.5 °F 30.16 in SW 0.1 mph 29.0 mph 62 % 0.00 in
23:01 31.0 °F 19.9 °F 30.15 in SW 0.4 mph 29.0 mph 63 % 0.00 in
23:06 30.9 °F 19.8 °F 30.15 in SW 1.4 mph 29.0 mph 63 % 0.00 in
23:11 30.8 °F 19.7 °F 30.14 in SW 0.1 mph 29.0 mph 63 % 0.00 in
23:16 30.7 °F 19.6 °F 30.13 in SW 0.4 mph 29.0 mph 63 % 0.00 in
23:21 30.7 °F 20.0 °F 30.14 in Calm   29.0 mph 64 % 0.00 in
23:26 30.6 °F 19.9 °F 30.13 in SSW 0.7 mph 29.0 mph 64 % 0.00 in
23:32 30.5 °F 19.8 °F 30.14 in SSW 0.7 mph 29.0 mph 64 % 0.00 in
23:37 30.5 °F 19.8 °F 30.13 in SSW 0.1 mph 29.0 mph 64 % 0.00 in
23:42 30.4 °F 19.7 °F 30.13 in SSW 0.6 mph 29.0 mph 64 % 0.00 in
23:47 30.3 °F 19.6 °F 30.12 in Calm   29.0 mph 64 % 0.00 in
23:52 30.3 °F 19.9 °F 30.12 in SSW 0.7 mph 29.0 mph 65 % 0.00 in
23:57 30.3 °F 20.3 °F 30.11 in SW 1.8 mph 29.0 mph 66 % 0.00 in
Crab Meadow Weather
Compliments of Weather Underground - 3 mb

Script developed by  Jim McMurry - jmcmurry@mwt.net Adapted for the template by  Wim van der Kuil - Leuven-Template.eu

Extremes: In Wyndham, Australia, the temperature reached 90 degrees F for 333 days in 1946.